FCYRRS OIBV-OMFJ

Flight info

Callsign FCYRRS
Flight time N/A
Altitude 6000
Route DRT
Aircraft BE58/L-SDE3/L

Departure

Time N/A
Airport Lavan Airport (OIBV)

Arrival

Time 2026-04-29 20:23
Airport Fujairah International Airport (OMFJ)
Time Latitude Longitude Altitude Speed Heading
2026-04-29 20:00 26.32962 56.31146 12129 ft 170 kts 183°
2026-04-29 20:01 26.31755 56.31217 12171 ft 177 kts 184°
2026-04-29 20:01 26.30509 56.31269 12265 ft 180 kts 185°
2026-04-29 20:01 26.29225 56.31306 12258 ft 187 kts 186°
2026-04-29 20:01 26.27930 56.31346 12429 ft 183 kts 185°
2026-04-29 20:02 26.26687 56.31393 12707 ft 174 kts 186°
2026-04-29 20:02 26.25498 56.31449 12999 ft 168 kts 185°
2026-04-29 20:02 26.24304 56.31503 12964 ft 182 kts 186°
2026-04-29 20:02 26.23419 56.31524 12663 ft 203 kts 185°
2026-04-29 20:03 26.21410 56.31563 12305 ft 222 kts 185°
2026-04-29 20:03 26.19900 56.31575 12514 ft 209 kts 186°
2026-04-29 20:03 26.18528 56.31574 12976 ft 185 kts 187°
2026-04-29 20:03 26.17285 56.31576 13201 ft 182 kts 189°
2026-04-29 20:04 26.15954 56.31516 12975 ft 200 kts 189°
2026-04-29 20:04 26.14516 56.31460 12750 ft 213 kts 187°
2026-04-29 20:04 26.12964 56.31405 12268 ft 234 kts 187°
2026-04-29 20:04 26.11276 56.31355 11832 ft 248 kts 186°
2026-04-29 20:05 26.09538 56.31300 11491 ft 252 kts 186°
2026-04-29 20:05 26.07792 56.31242 11333 ft 247 kts 186°
2026-04-29 20:05 26.06122 56.31173 11403 ft 233 kts 187°
2026-04-29 20:05 26.04562 56.31118 11690 ft 214 kts 184°
2026-04-29 20:06 26.03160 56.31148 12190 ft 189 kts 183°
2026-04-29 20:06 26.01919 56.31204 12578 ft 176 kts 186°
2026-04-29 20:06 26.00648 56.31186 12463 ft 191 kts 187°
2026-04-29 20:06 25.99250 56.31115 12228 ft 208 kts 187°
2026-04-29 20:07 25.97786 56.31041 11963 ft 218 kts 187°
2026-04-29 20:07 25.96162 56.30882 11406 ft 236 kts 191°
2026-04-29 20:07 25.94568 56.30654 11383 ft 229 kts 192°
2026-04-29 20:07 25.92942 56.30413 10914 ft 244 kts 191°
2026-04-29 20:08 25.91289 56.30212 10964 ft 232 kts 182°
2026-04-29 20:08 25.90216 56.30148 10740 ft 236 kts 181°
2026-04-29 20:08 25.87937 56.29978 10043 ft 252 kts 190°
2026-04-29 20:08 25.86189 56.29793 9669 ft 252 kts 190°
2026-04-29 20:09 25.84431 56.29623 9100 ft 255 kts 189°
2026-04-29 20:09 25.82671 56.29498 8722 ft 249 kts 188°
2026-04-29 20:09 25.80982 56.29370 8580 ft 235 kts 190°
2026-04-29 20:09 25.79456 56.29243 8955 ft 204 kts 190°
2026-04-29 20:10 25.78043 56.29182 8591 ft 215 kts 186°
2026-04-29 20:10 25.76475 56.29178 7930 ft 235 kts 185°
2026-04-29 20:10 25.74816 56.29196 7225 ft 244 kts 184°
2026-04-29 20:10 25.73037 56.29277 6234 ft 263 kts 182°
2026-04-29 20:11 25.71214 56.29357 5820 ft 259 kts 182°
2026-04-29 20:11 25.69471 56.29440 5861 ft 239 kts 182°
2026-04-29 20:11 25.67920 56.29504 6297 ft 209 kts 184°
2026-04-29 20:11 25.66562 56.29545 6756 ft 179 kts 188°
2026-04-29 20:12 25.65412 56.29514 7237 ft 154 kts 174°
2026-04-29 20:12 25.64346 56.29612 7337 ft 160 kts 178°
2026-04-29 20:12 25.63143 56.29753 7045 ft 189 kts 181°
2026-04-29 20:12 25.61791 56.29874 6980 ft 195 kts 184°
2026-04-29 20:13 25.60494 56.29974 7336 ft 176 kts 184°
2026-04-29 20:13 25.59720 56.30047 7577 ft 166 kts 184°
2026-04-29 20:13 25.58009 56.30184 7223 ft 197 kts 184°
2026-04-29 20:13 25.56626 56.30282 7230 ft 198 kts 184°
2026-04-29 20:14 25.55288 56.30383 7510 ft 184 kts 183°
2026-04-29 20:14 25.54088 56.30495 7874 ft 167 kts 185°
2026-04-29 20:14 25.52880 56.30573 7702 ft 184 kts 186°
2026-04-29 20:14 25.51517 56.30647 7327 ft 207 kts 185°
2026-04-29 20:15 25.50039 56.30720 7161 ft 213 kts 184°
2026-04-29 20:15 25.48609 56.30810 7401 ft 194 kts 184°
2026-04-29 20:15 25.47358 56.30911 7879 ft 168 kts 184°
2026-04-29 20:15 25.46115 56.30992 7590 ft 193 kts 185°
2026-04-29 20:16 25.44782 56.31078 7597 ft 189 kts 184°
2026-04-29 20:16 25.43554 56.31178 8049 ft 164 kts 183°
2026-04-29 20:16 25.42504 56.31279 8513 ft 142 kts 184°
2026-04-29 20:16 25.41553 56.31380 8786 ft 135 kts 184°
2026-04-29 20:17 25.40494 56.31473 8302 ft 179 kts 183°
2026-04-29 20:17 25.39132 56.31555 7648 ft 214 kts 182°
2026-04-29 20:17 25.37540 56.31598 6934 ft 240 kts 184°
2026-04-29 20:17 25.35810 56.31624 6219 ft 257 kts 185°
2026-04-29 20:18 25.34000 56.31650 5497 ft 266 kts 184°
2026-04-29 20:18 25.32130 56.31703 5004 ft 265 kts 182°
2026-04-29 20:18 25.30535 56.31775 6009 ft 197 kts 182°
2026-04-29 20:18 25.29215 56.31886 6316 ft 182 kts 181°
2026-04-29 20:19 25.27912 56.32008 6080 ft 201 kts 182°
2026-04-29 20:19 25.26477 56.32126 5912 ft 210 kts 182°
2026-04-29 20:19 25.24962 56.32218 5570 ft 225 kts 183°
2026-04-29 20:19 25.23390 56.32294 5493 ft 227 kts 182°
2026-04-29 20:20 25.21821 56.32398 5384 ft 228 kts 181°
2026-04-29 20:20 25.20162 56.32491 4768 ft 247 kts 181°
2026-04-29 20:20 25.18415 56.32575 4386 ft 252 kts 181°
2026-04-29 20:20 25.16714 56.32833 4319 ft 243 kts 158°
2026-04-29 20:21 25.15668 56.34191 3678 ft 238 kts 111°
2026-04-29 20:21 25.15122 56.35906 3157 ft 223 kts 106°
2026-04-29 20:21 25.14716 56.36888 2911 ft 211 kts 121°
2026-04-29 20:21 25.13627 56.37999 2119 ft 219 kts 150°
2026-04-29 20:22 25.12231 56.38520 1545 ft 201 kts 179°
2026-04-29 20:22 25.11015 56.37999 636 ft 190 kts 231°
2026-04-29 20:22 25.10558 56.36902 824 ft 125 kts 251°
2026-04-29 20:22 25.10385 56.36125 778 ft 95 kts 262°
2026-04-29 20:23 25.10353 56.35359 575 ft 112 kts 276°
2026-04-29 20:23 25.10483 56.34469 318 ft 115 kts 284°
2026-04-29 20:23 25.10727 56.33702 58 ft 94 kts 294°
2026-04-29 20:23 25.10948 56.33204 74 ft 40 kts 349°
2026-04-29 20:24 25.11085 56.33211 72 ft 22 kts
2026-04-29 20:24 25.11206 56.33229 76 ft 11 kts
2026-04-29 20:24 25.11280 56.33233 71 ft 18 kts 330°
2026-04-29 20:24 25.11270 56.33129 79 ft 5 kts 206°
2026-04-29 20:25 25.11269 56.33129 79 ft 0 kts 192°
2026-04-29 20:30 25.11338 56.33145 80 ft 0 kts 192°
2026-04-29 20:30 25.11338 56.33146 80 ft 0 kts 192°
2026-04-29 20:30 25.11377 56.33155 80 ft 0 kts 192°